Location: Chantarel
(45.1638°N, 1.7873°E)
Time: 13:26:01
(UTC+00:00)

CSL-04 Rocket - Pass Details

Date: 03 March 2021
Orbit: 805 x 861 km, 98.9° (Epoch: 15 April)

Event Time Altitude Azimuth Distance (km) Brightness Sun altitude
Rises 18:21:39 0° 145° (SE) 3,425 6.5 -7.6°
Reaches altitude 10° 18:24:06 10° 140° (SE) 2,491 5.8 -8.0°
Maximum altitude 18:29:22 47° 68° (ENE) 1,129 4.0 -9.0°
Drops below altitude 10° 18:34:37 10° 357° (N) 2,486 6.2 -9.9°
Sets 18:37:03 0° 351° (N) 3,418 7.0 -10.3°
